Time,TemperatureF,DewpointF,PressureIn,WindDirection,WindDirectionDegrees,WindSpeedMPH,WindSpeedGustMPH,Humidity,HourlyPrecipIn,Conditions,Clouds,dailyrainin,SoftwareType,DateUTC
2013-09-08 00:01:00,59.2,51.3,29.99,ESE,102,0.0,0.0,75,0.00,,CLR,0.00,VWS V13.01,2013-09-08 04:01:00,
2013-09-08 00:06:00,59.0,51.1,29.99,ESE,102,0.0,0.0,75,0.00,,CLR,0.00,VWS V13.01,2013-09-08 04:06:00,
2013-09-08 00:11:00,58.6,50.8,29.99,ESE,102,0.0,0.0,75,0.00,,CLR,0.00,VWS V13.01,2013-09-08 04:11:00,
2013-09-08 00:16:00,58.5,50.9,29.99,ESE,102,0.0,0.0,76,0.00,,CLR,0.00,VWS V13.01,2013-09-08 04:16:00,
2013-09-08 00:21:00,58.3,50.8,29.99,WNW,285,3.4,3.9,76,0.00,,CLR,0.00,VWS V13.01,2013-09-08 04:21:00,
2013-09-08 00:26:00,58.5,51.3,29.99,WNW,285,0.0,0.0,77,0.00,,CLR,0.00,VWS V13.01,2013-09-08 04:26:00,
2013-09-08 00:31:00,58.5,51.3,29.99,WNW,284,0.0,0.0,77,0.00,,CLR,0.00,VWS V13.01,2013-09-08 04:31:00,
2013-09-08 00:36:00,58.5,51.6,29.99,WNW,285,0.0,0.0,78,0.00,,CLR,0.00,VWS V13.01,2013-09-08 04:36:00,
2013-09-08 00:41:00,58.5,51.6,29.99,NE,40,0.0,0.0,78,0.00,,CLR,0.00,VWS V13.01,2013-09-08 04:41:00,
2013-09-08 00:46:00,58.6,52.2,29.99,NW,313,0.0,0.0,79,0.00,,CLR,0.00,VWS V13.01,2013-09-08 04:46:00,
2013-09-08 00:51:00,58.5,52.0,29.99,NW,313,0.0,0.0,79,0.00,,CLR,0.00,VWS V13.01,2013-09-08 04:51:00,
2013-09-08 00:56:00,58.5,51.6,29.99,NW,313,0.0,0.0,78,0.00,,CLR,0.00,VWS V13.01,2013-09-08 04:56:00,
2013-09-08 01:01:00,58.1,51.3,29.99,NW,313,0.0,0.0,78,0.00,,CLR,0.00,VWS V13.01,2013-09-08 05:01:00,
2013-09-08 01:06:00,57.9,51.5,29.99,NW,313,0.0,0.0,79,0.00,,CLR,0.00,VWS V13.01,2013-09-08 05:06:00,
2013-09-08 01:11:00,57.7,51.3,29.99,WSW,249,0.0,0.0,79,0.00,,CLR,0.00,VWS V13.01,2013-09-08 05:11:00,
2013-09-08 01:16:00,57.7,51.6,29.99,West,259,0.0,0.0,80,0.00,,,0.00,VWS V13.01,2013-09-08 05:16:00,
2013-09-08 01:21:00,57.9,52.1,29.99,NW,319,0.0,0.0,81,0.00,,,0.00,VWS V13.01,2013-09-08 05:21:00,
2013-09-08 01:26:00,58.1,52.3,29.99,WNW,294,0.0,0.0,81,0.00,,,0.00,VWS V13.01,2013-09-08 05:26:00,
2013-09-08 01:31:00,58.1,52.3,29.99,NW,307,0.0,0.0,81,0.00,,,0.00,VWS V13.01,2013-09-08 05:31:00,
2013-09-08 01:36:00,58.1,52.3,29.99,NNE,24,0.0,0.0,81,0.00,,,0.00,VWS V13.01,2013-09-08 05:36:00,
2013-09-08 01:41:00,58.1,52.6,29.99,NNE,33,0.0,0.0,82,0.00,,,0.00,VWS V13.01,2013-09-08 05:41:00,
2013-09-08 01:46:00,58.1,52.6,29.99,NNE,33,0.0,0.0,82,0.00,,,0.00,VWS V13.01,2013-09-08 05:46:00,
2013-09-08 01:51:00,58.1,52.6,29.99,North,353,0.0,0.0,82,0.00,,,0.00,VWS V13.01,2013-09-08 05:51:00,
2013-09-08 01:56:00,58.1,52.6,29.99,North,353,0.0,0.0,82,0.00,,,0.00,VWS V13.01,2013-09-08 05:56:00,
2013-09-08 02:01:00,58.1,53.0,29.99,North,353,0.0,0.0,83,0.00,,,0.00,VWS V13.01,2013-09-08 06:01:00,
2013-09-08 02:06:00,58.1,53.0,29.99,North,353,0.0,0.0,83,0.00,,,0.00,VWS V13.01,2013-09-08 06:06:00,
2013-09-08 02:11:00,58.1,53.0,29.99,North,353,0.0,0.0,83,0.00,,,0.00,VWS V13.01,2013-09-08 06:11:00,
2013-09-08 02:16:00,58.1,53.0,29.99,North,8,0.0,0.0,83,0.00,,,0.00,VWS V13.01,2013-09-08 06:16:00,
2013-09-08 02:21:00,58.3,53.5,29.99,North,0,0.0,0.0,84,0.00,,,0.00,VWS V13.01,2013-09-08 06:21:00,
2013-09-08 02:26:00,58.3,53.5,29.96,NNW,342,0.0,0.0,84,0.00,,,0.00,VWS V13.01,2013-09-08 06:26:00,
2013-09-08 02:31:00,58.5,53.7,29.96,NNW,342,0.0,0.0,84,0.00,,,0.00,VWS V13.01,2013-09-08 06:31:00,
2013-09-08 02:36:00,58.5,54.0,29.96,NNW,338,0.0,0.0,85,0.00,,,0.00,VWS V13.01,2013-09-08 06:36:00,
2013-09-08 02:41:00,58.6,54.5,29.99,SSW,198,3.4,3.9,86,0.00,,,0.00,VWS V13.01,2013-09-08 06:41:00,
2013-09-08 02:46:00,58.8,54.7,29.99,WNW,295,0.0,5.0,86,0.00,,,0.00,VWS V13.01,2013-09-08 06:46:00,
2013-09-08 02:51:00,59.0,54.5,29.99,WNW,295,0.0,0.0,85,0.00,,,0.00,VWS V13.01,2013-09-08 06:51:00,
2013-09-08 02:56:00,59.0,54.5,29.96,SW,217,0.0,0.0,85,0.00,,CLR,0.00,VWS V13.01,2013-09-08 06:56:00,
2013-09-08 03:01:00,59.0,54.5,29.96,SW,217,0.0,0.0,85,0.00,,CLR,0.00,VWS V13.01,2013-09-08 07:01:00,
2013-09-08 03:06:00,58.8,54.3,29.96,SW,217,0.0,0.0,85,0.00,,CLR,0.00,VWS V13.01,2013-09-08 07:06:00,
2013-09-08 03:11:00,58.8,54.3,29.96,SW,217,0.0,0.0,85,0.00,,CLR,0.00,VWS V13.01,2013-09-08 07:11:00,
2013-09-08 03:16:00,59.0,54.5,29.96,SW,217,0.0,0.0,85,0.00,,CLR,0.00,VWS V13.01,2013-09-08 07:16:00,
2013-09-08 03:21:00,59.0,54.5,29.96,SW,217,0.0,0.0,85,0.00,,CLR,0.00,VWS V13.01,2013-09-08 07:21:00,
2013-09-08 03:26:00,58.8,54.3,29.96,SW,217,0.0,0.0,85,0.00,,CLR,0.00,VWS V13.01,2013-09-08 07:26:00,
2013-09-08 03:31:00,58.8,54.3,29.96,SW,217,0.0,0.0,85,0.00,,CLR,0.00,VWS V13.01,2013-09-08 07:31:00,
2013-09-08 03:36:00,58.8,54.3,29.96,SW,217,0.0,0.0,85,0.00,,CLR,0.00,VWS V13.01,2013-09-08 07:36:00,
2013-09-08 03:41:00,58.8,54.3,29.96,SW,217,0.0,0.0,85,0.00,,CLR,0.00,VWS V13.01,2013-09-08 07:41:00,
2013-09-08 03:46:00,58.8,54.3,29.96,SW,217,0.0,0.0,85,0.00,,CLR,0.00,VWS V13.01,2013-09-08 07:46:00,
2013-09-08 03:51:00,59.0,54.5,29.96,SW,217,0.0,0.0,85,0.00,,CLR,0.00,VWS V13.01,2013-09-08 07:51:00,
2013-09-08 03:56:00,59.2,54.7,29.96,SW,217,0.0,0.0,85,0.00,,CLR,0.00,VWS V13.01,2013-09-08 07:56:00,
2013-09-08 04:01:00,59.2,54.7,29.96,SW,217,0.0,0.0,85,0.00,,CLR,0.00,VWS V13.01,2013-09-08 08:01:00,
2013-09-08 04:06:00,59.4,55.2,29.96,SW,217,0.0,0.0,86,0.00,,CLR,0.00,VWS V13.01,2013-09-08 08:06:00,
2013-09-08 04:11:00,59.4,54.9,29.96,SW,217,0.0,0.0,85,0.00,,CLR,0.00,VWS V13.01,2013-09-08 08:11:00,
2013-09-08 04:16:00,59.5,55.3,29.96,South,175,0.0,0.0,86,0.00,,CLR,0.00,VWS V13.01,2013-09-08 08:16:00,
2013-09-08 04:21:00,59.5,55.0,29.96,South,175,0.0,0.0,85,0.00,,CLR,0.00,VWS V13.01,2013-09-08 08:21:00,
2013-09-08 04:26:00,59.7,55.5,29.96,South,175,0.0,0.0,86,0.00,,CLR,0.00,VWS V13.01,2013-09-08 08:26:00,
2013-09-08 04:31:00,59.7,55.5,29.96,West,259,3.4,3.4,86,0.00,,CLR,0.00,VWS V13.01,2013-09-08 08:31:00,
2013-09-08 04:36:00,59.7,55.5,29.96,WSW,255,0.0,0.0,86,0.00,,SCT120,0.00,VWS V13.01,2013-09-08 08:36:00,
2013-09-08 04:41:00,59.7,55.2,29.96,WSW,255,0.0,0.0,85,0.00,,SCT120,0.00,VWS V13.01,2013-09-08 08:41:00,
2013-09-08 04:46:00,59.5,55.0,29.96,WSW,254,0.0,0.0,85,0.00,,SCT120,0.00,VWS V13.01,2013-09-08 08:46:00,
2013-09-08 04:51:00,59.5,55.0,29.96,WSW,254,0.0,0.0,85,0.00,,SCT120,0.00,VWS V13.01,2013-09-08 08:51:00,
2013-09-08 04:56:00,59.5,55.3,29.96,NW,322,0.0,0.0,86,0.00,,BKN120,0.00,VWS V13.01,2013-09-08 08:56:00,
2013-09-08 05:01:00,59.7,55.5,29.96,NW,322,0.0,0.0,86,0.00,,BKN120,0.00,VWS V13.01,2013-09-08 09:01:00,
2013-09-08 05:06:00,59.5,55.0,29.96,NW,322,0.0,0.0,85,0.00,,BKN120,0.00,VWS V13.01,2013-09-08 09:06:00,
2013-09-08 05:11:00,59.5,55.0,29.96,NW,322,0.0,0.0,85,0.00,,BKN120,0.00,VWS V13.01,2013-09-08 09:11:00,
2013-09-08 05:16:00,59.7,55.5,29.96,NW,312,0.0,0.0,86,0.00,,SCT110,0.00,VWS V13.01,2013-09-08 09:16:00,
2013-09-08 05:21:00,59.7,55.5,29.96,WNW,285,0.0,0.0,86,0.00,,SCT110,0.00,VWS V13.01,2013-09-08 09:21:00,
2013-09-08 05:26:00,59.7,55.5,29.96,WNW,294,0.0,0.0,86,0.00,,SCT110,0.00,VWS V13.01,2013-09-08 09:26:00,
2013-09-08 05:31:00,59.5,55.0,29.96,WNW,294,0.0,0.0,85,0.00,,SCT110,0.00,VWS V13.01,2013-09-08 09:31:00,
2013-09-08 05:36:00,59.4,54.9,29.96,WNW,294,0.0,0.0,85,0.00,,CLR,0.00,VWS V13.01,2013-09-08 09:36:00,
2013-09-08 05:41:00,59.2,54.7,29.96,WNW,294,0.0,0.0,85,0.00,,CLR,0.00,VWS V13.01,2013-09-08 09:41:00,
2013-09-08 05:46:00,58.8,54.3,29.96,WNW,294,0.0,0.0,85,0.00,,CLR,0.00,VWS V13.01,2013-09-08 09:46:00,
2013-09-08 05:51:00,58.8,54.3,29.96,WNW,294,0.0,0.0,85,0.00,,CLR,0.00,VWS V13.01,2013-09-08 09:51:00,
2013-09-08 05:56:00,58.6,54.2,29.96,WNW,294,0.0,0.0,85,0.00,,SCT060,0.00,VWS V13.01,2013-09-08 09:56:00,
2013-09-08 06:01:00,58.3,53.8,29.96,WNW,294,0.0,0.0,85,0.00,,SCT060,0.00,VWS V13.01,2013-09-08 10:01:00,
2013-09-08 06:06:00,58.1,53.6,29.96,West,261,0.0,0.0,85,0.00,,SCT060,0.00,VWS V13.01,2013-09-08 10:06:00,
2013-09-08 06:11:00,58.1,53.9,29.96,West,264,3.4,3.9,86,0.00,,SCT060,0.00,VWS V13.01,2013-09-08 10:11:00,
2013-09-08 06:16:00,58.1,53.9,29.96,WSW,248,0.0,2.8,86,0.00,,SCT110,0.00,VWS V13.01,2013-09-08 10:16:00,
2013-09-08 06:21:00,58.1,54.3,29.96,NNW,333,0.0,0.0,87,0.00,,SCT110,0.00,VWS V13.01,2013-09-08 10:21:00,
2013-09-08 06:26:00,58.1,54.3,29.96,NNW,333,0.0,0.0,87,0.00,,SCT110,0.00,VWS V13.01,2013-09-08 10:26:00,
2013-09-08 06:31:00,58.1,53.9,29.96,NNW,333,0.0,0.0,86,0.00,,SCT110,0.00,VWS V13.01,2013-09-08 10:31:00,
2013-09-08 06:36:00,57.9,53.8,29.96,NNW,333,0.0,0.0,86,0.00,,BKN110,0.00,VWS V13.01,2013-09-08 10:36:00,
2013-09-08 06:41:00,57.9,54.1,29.96,NNW,333,0.0,0.0,87,0.00,,BKN110,0.00,VWS V13.01,2013-09-08 10:41:00,
2013-09-08 06:46:00,58.1,54.3,29.96,NNW,333,0.0,0.0,87,0.00,,BKN110,0.00,VWS V13.01,2013-09-08 10:46:00,
2013-09-08 06:51:00,58.1,54.3,29.96,NNW,333,0.0,0.0,87,0.00,,BKN110,0.00,VWS V13.01,2013-09-08 10:51:00,
2013-09-08 06:56:00,58.1,54.3,29.96,NNW,333,0.0,0.0,87,0.00,,BKN060,0.00,VWS V13.01,2013-09-08 10:56:00,
2013-09-08 07:01:00,58.1,54.3,29.96,West,265,0.0,0.0,87,0.00,,BKN060,0.00,VWS V13.01,2013-09-08 11:01:00,
2013-09-08 07:06:00,58.1,54.6,29.96,West,265,0.0,0.0,88,0.00,,BKN060,0.00,VWS V13.01,2013-09-08 11:06:00,
2013-09-08 07:11:00,58.5,55.2,29.96,NE,40,0.0,0.0,89,0.00,,BKN060,0.00,VWS V13.01,2013-09-08 11:11:00,
2013-09-08 07:16:00,58.6,55.7,29.96,ESE,105,2.8,3.4,90,0.00,,BKN060,0.00,VWS V13.01,2013-09-08 11:16:00,
2013-09-08 07:21:00,58.8,55.9,29.96,ESE,103,0.0,0.0,90,0.00,,BKN060,0.00,VWS V13.01,2013-09-08 11:21:00,
2013-09-08 07:26:00,59.2,56.2,29.99,ESE,107,0.0,0.0,90,0.00,,BKN060,0.00,VWS V13.01,2013-09-08 11:26:00,
2013-09-08 07:31:00,59.5,56.6,29.99,ESE,107,0.0,0.0,90,0.00,,BKN060,0.00,VWS V13.01,2013-09-08 11:31:00,
2013-09-08 07:36:00,59.9,56.7,29.99,ESE,107,0.0,0.0,89,0.00,,,0.00,VWS V13.01,2013-09-08 11:36:00,
2013-09-08 07:41:00,60.1,57.1,29.99,ESE,107,0.0,0.0,90,0.00,,,0.00,VWS V13.01,2013-09-08 11:41:00,
2013-09-08 07:46:00,60.3,57.0,29.99,ESE,107,0.0,0.0,89,0.00,,,0.00,VWS V13.01,2013-09-08 11:46:00,
2013-09-08 07:51:00,60.4,57.2,29.99,ESE,107,0.0,0.0,89,0.00,,,0.00,VWS V13.01,2013-09-08 11:51:00,
2013-09-08 07:56:00,60.8,57.5,29.99,ENE,62,0.0,0.0,89,0.00,,OVC080,0.00,VWS V13.01,2013-09-08 11:56:00,
2013-09-08 08:01:00,61.7,58.4,29.99,NW,316,0.0,0.0,89,0.00,,OVC080,0.00,VWS V13.01,2013-09-08 12:01:00,
2013-09-08 08:06:00,62.4,59.1,29.99,NW,316,0.0,0.0,89,0.00,,OVC080,0.00,VWS V13.01,2013-09-08 12:06:00,
2013-09-08 08:11:00,63.3,60.0,29.99,SE,138,3.9,3.9,89,0.00,,OVC080,0.00,VWS V13.01,2013-09-08 12:11:00,
2013-09-08 08:16:00,63.5,59.9,29.99,SE,136,0.0,0.0,88,0.00,,OVC090,0.00,VWS V13.01,2013-09-08 12:16:00,
2013-09-08 08:21:00,64.4,60.5,29.99,SE,126,0.0,0.0,87,0.00,,OVC090,0.00,VWS V13.01,2013-09-08 12:21:00,
2013-09-08 08:26:00,65.3,61.0,29.99,SE,126,0.0,0.0,86,0.00,,OVC090,0.00,VWS V13.01,2013-09-08 12:26:00,
2013-09-08 08:31:00,66.0,60.7,29.99,SE,143,3.4,3.4,83,0.00,,OVC090,0.00,VWS V13.01,2013-09-08 12:31:00,
2013-09-08 08:36:00,66.7,59.3,29.99,WSW,241,0.0,0.0,77,0.00,,BKN120,0.00,VWS V13.01,2013-09-08 12:36:00,
2013-09-08 08:41:00,67.3,57.2,29.99,SSW,195,0.0,2.8,70,0.00,,BKN120,0.00,VWS V13.01,2013-09-08 12:41:00,
2013-09-08 08:46:00,67.6,57.1,29.99,WNW,290,0.0,3.4,69,0.00,,BKN120,0.00,VWS V13.01,2013-09-08 12:46:00,
2013-09-08 08:51:00,68.2,56.4,29.99,WSW,247,2.8,3.4,66,0.00,,BKN120,0.00,VWS V13.01,2013-09-08 12:51:00,
2013-09-08 08:56:00,68.9,57.5,29.99,WNW,284,0.0,0.0,67,0.00,,SCT120,0.00,VWS V13.01,2013-09-08 12:56:00,
2013-09-08 09:01:00,69.6,57.8,29.99,WNW,284,0.0,0.0,66,0.00,,SCT120,0.00,VWS V13.01,2013-09-08 13:01:00,
2013-09-08 09:06:00,70.5,57.8,29.99,SE,125,3.9,4.5,64,0.00,,SCT120,0.00,VWS V13.01,2013-09-08 13:06:00,
2013-09-08 09:11:00,71.1,55.5,29.99,SE,136,6.2,6.2,58,0.00,,SCT120,0.00,VWS V13.01,2013-09-08 13:11:00,
2013-09-08 09:16:00,71.4,55.4,29.99,SE,143,0.0,4.5,57,0.00,,CLR,0.00,VWS V13.01,2013-09-08 13:16:00,
2013-09-08 09:21:00,71.8,55.8,29.99,SSW,207,0.0,0.0,57,0.00,,CLR,0.00,VWS V13.01,2013-09-08 13:21:00,
2013-09-08 09:26:00,72.0,55.4,29.96,ESE,120,0.0,5.0,56,0.00,,CLR,0.00,VWS V13.01,2013-09-08 13:26:00,
2013-09-08 09:31:00,72.1,55.6,29.96,ESE,108,3.4,4.5,56,0.00,,CLR,0.00,VWS V13.01,2013-09-08 13:31:00,
2013-09-08 09:36:00,72.3,54.8,29.96,SSE,154,2.8,5.0,54,0.00,,SCT120,0.00,VWS V13.01,2013-09-08 13:36:00,
2013-09-08 09:41:00,72.5,54.9,29.96,SW,218,3.4,6.2,54,0.00,,SCT120,0.00,VWS V13.01,2013-09-08 13:41:00,
2013-09-08 09:46:00,72.9,55.8,29.96,SE,129,0.0,3.4,55,0.00,,SCT120,0.00,VWS V13.01,2013-09-08 13:46:00,
2013-09-08 09:51:00,73.6,56.4,29.96,SE,135,5.0,5.0,55,0.00,,SCT120,0.00,VWS V13.01,2013-09-08 13:51:00,
2013-09-08 09:56:00,74.1,56.4,29.96,West,278,0.0,2.8,54,0.00,,SCT120,0.00,VWS V13.01,2013-09-08 13:56:00,
2013-09-08 10:01:00,74.5,56.2,29.96,East,101,3.4,5.0,53,0.00,,SCT120,0.00,VWS V13.01,2013-09-08 14:01:00,
2013-09-08 10:06:00,75.0,55.7,29.96,SSE,161,3.4,4.5,51,0.00,,SCT120,0.00,VWS V13.01,2013-09-08 14:06:00,
2013-09-08 10:11:00,75.0,55.1,29.96,SE,144,3.4,6.2,50,0.00,,SCT120,0.00,VWS V13.01,2013-09-08 14:11:00,
2013-09-08 10:16:00,75.4,55.5,29.96,ESE,120,0.0,6.2,50,0.00,,SCT110,0.00,VWS V13.01,2013-09-08 14:16:00,
2013-09-08 10:21:00,75.9,56.5,29.96,WSW,250,0.0,3.9,51,0.00,,SCT110,0.00,VWS V13.01,2013-09-08 14:21:00,
2013-09-08 10:26:00,76.8,56.2,29.96,SSW,192,6.2,6.2,49,0.00,,SCT110,0.00,VWS V13.01,2013-09-08 14:26:00,
2013-09-08 10:31:00,77.2,56.6,29.96,SSE,150,4.5,4.5,49,0.00,,SCT110,0.00,VWS V13.01,2013-09-08 14:31:00,
2013-09-08 10:36:00,77.9,57.8,29.96,SW,233,3.4,3.9,50,0.00,,CLR,0.00,VWS V13.01,2013-09-08 14:36:00,
2013-09-08 10:41:00,78.3,57.0,29.96,West,263,4.5,6.7,48,0.00,,CLR,0.00,VWS V13.01,2013-09-08 14:41:00,
2013-09-08 10:46:00,78.6,57.3,29.96,South,187,0.0,0.0,48,0.00,,CLR,0.00,VWS V13.01,2013-09-08 14:46:00,
2013-09-08 10:51:00,79.0,57.6,29.96,West,265,4.5,4.5,48,0.00,,CLR,0.00,VWS V13.01,2013-09-08 14:51:00,
2013-09-08 10:56:00,79.5,58.1,29.96,SE,138,3.9,4.5,48,0.00,,CLR,0.00,VWS V13.01,2013-09-08 14:56:00,
2013-09-08 11:01:00,80.4,59.0,29.96,SE,131,2.8,3.9,48,0.00,,CLR,0.00,VWS V13.01,2013-09-08 15:01:00,
2013-09-08 11:06:00,80.8,58.1,29.96,SE,126,4.5,7.8,46,0.00,,CLR,0.00,VWS V13.01,2013-09-08 15:06:00,
2013-09-08 11:11:00,81.0,58.3,29.96,ESE,104,2.8,7.8,46,0.00,,CLR,0.00,VWS V13.01,2013-09-08 15:11:00,
2013-09-08 11:16:00,81.1,58.4,29.96,East,92,6.2,6.2,46,0.00,,CLR,0.00,VWS V13.01,2013-09-08 15:16:00,
2013-09-08 11:21:00,81.0,58.9,29.96,ENE,64,3.9,5.6,47,0.00,,CLR,0.00,VWS V13.01,2013-09-08 15:21:00,
2013-09-08 11:26:00,81.3,58.6,29.96,SSW,201,0.0,3.9,46,0.00,,CLR,0.00,VWS V13.01,2013-09-08 15:26:00,
2013-09-08 11:31:00,81.7,58.9,29.96,SE,134,6.7,7.8,46,0.00,,CLR,0.00,VWS V13.01,2013-09-08 15:31:00,
2013-09-08 11:36:00,82.2,59.4,29.96,SSE,167,5.0,5.0,46,0.00,,CLR,0.00,VWS V13.01,2013-09-08 15:36:00,
2013-09-08 11:41:00,82.4,59.0,29.96,South,187,0.0,3.4,45,0.00,,CLR,0.00,VWS V13.01,2013-09-08 15:41:00,
2013-09-08 11:46:00,82.4,59.0,29.96,East,86,5.0,5.0,45,0.00,,CLR,0.00,VWS V13.01,2013-09-08 15:46:00,
2013-09-08 11:51:00,82.9,60.0,29.96,SW,214,2.8,5.0,46,0.00,,CLR,0.00,VWS V13.01,2013-09-08 15:51:00,
2013-09-08 11:56:00,83.3,59.8,29.96,SE,125,3.9,4.5,45,0.00,,CLR,0.00,VWS V13.01,2013-09-08 15:56:00,
2013-09-08 12:01:00,83.7,60.1,29.96,SSE,155,5.0,6.2,45,0.00,,CLR,0.00,VWS V13.01,2013-09-08 16:01:00,
2013-09-08 12:06:00,83.7,60.1,29.96,NE,39,3.9,4.5,45,0.00,,CLR,0.00,VWS V13.01,2013-09-08 16:06:00,
2013-09-08 12:11:00,83.3,59.8,29.96,ENE,57,2.8,3.9,45,0.00,,CLR,0.00,VWS V13.01,2013-09-08 16:11:00,
2013-09-08 12:16:00,83.8,60.2,29.96,NNW,336,4.5,4.5,45,0.00,,CLR,0.00,VWS V13.01,2013-09-08 16:16:00,
2013-09-08 12:21:00,83.5,59.3,29.96,ENE,75,0.0,2.8,44,0.00,,CLR,0.00,VWS V13.01,2013-09-08 16:21:00,
2013-09-08 12:26:00,83.3,59.1,29.96,North,7,0.0,3.9,44,0.00,,CLR,0.00,VWS V13.01,2013-09-08 16:26:00,
2013-09-08 12:31:00,83.1,59.6,29.96,East,96,0.0,3.4,45,0.00,,CLR,0.00,VWS V13.01,2013-09-08 16:31:00,
2013-09-08 12:36:00,83.5,59.3,29.96,NE,42,4.5,4.5,44,0.00,,CLR,0.00,VWS V13.01,2013-09-08 16:36:00,
2013-09-08 12:41:00,83.7,60.1,29.93,SSE,164,3.4,3.9,45,0.00,,CLR,0.00,VWS V13.01,2013-09-08 16:41:00,
2013-09-08 12:46:00,84.4,60.1,29.93,West,266,4.5,4.5,44,0.00,,CLR,0.00,VWS V13.01,2013-09-08 16:46:00,
2013-09-08 12:51:00,84.9,60.6,29.93,SSE,154,0.0,2.8,44,0.00,,CLR,0.00,VWS V13.01,2013-09-08 16:51:00,
2013-09-08 12:56:00,85.6,61.2,29.93,WSW,251,0.0,3.4,44,0.00,,CLR,0.00,VWS V13.01,2013-09-08 16:56:00,
2013-09-08 13:01:00,86.4,61.9,29.93,WSW,258,4.5,4.5,44,0.00,,CLR,0.00,VWS V13.01,2013-09-08 17:01:00,
2013-09-08 13:06:00,86.7,62.2,29.93,SE,126,3.4,4.5,44,0.00,,CLR,0.00,VWS V13.01,2013-09-08 17:06:00,
2013-09-08 13:11:00,87.1,62.5,29.93,North,0,3.9,3.9,44,0.00,,CLR,0.00,VWS V13.01,2013-09-08 17:11:00,
2013-09-08 13:16:00,87.3,62.1,29.93,ESE,103,2.8,2.8,43,0.00,,CLR,0.00,VWS V13.01,2013-09-08 17:16:00,
2013-09-08 13:21:00,87.6,62.4,29.93,SE,135,2.8,2.8,43,0.00,,CLR,0.00,VWS V13.01,2013-09-08 17:21:00,
2013-09-08 13:26:00,88.0,62.7,29.93,SE,125,6.2,6.7,43,0.00,,CLR,0.00,VWS V13.01,2013-09-08 17:26:00,
2013-09-08 13:31:00,88.0,62.7,29.93,ESE,107,4.5,4.5,43,0.00,,CLR,0.00,VWS V13.01,2013-09-08 17:31:00,
2013-09-08 13:36:00,87.8,62.5,29.93,West,267,5.0,5.0,43,0.00,,CLR,0.00,VWS V13.01,2013-09-08 17:36:00,
2013-09-08 13:41:00,88.0,62.7,29.93,WSW,240,3.9,9.5,43,0.00,,CLR,0.00,VWS V13.01,2013-09-08 17:41:00,
2013-09-08 13:46:00,88.0,62.7,29.93,West,276,4.5,6.7,43,0.00,,CLR,0.00,VWS V13.01,2013-09-08 17:46:00,
2013-09-08 13:51:00,87.8,62.5,29.93,WSW,246,3.9,6.7,43,0.00,,CLR,0.00,VWS V13.01,2013-09-08 17:51:00,
2013-09-08 13:56:00,87.6,62.4,29.93,WSW,240,3.9,5.0,43,0.00,,SCT045,0.00,VWS V13.01,2013-09-08 17:56:00,
2013-09-08 14:01:00,87.8,62.5,29.93,WSW,238,3.4,3.4,43,0.00,,SCT045,0.00,VWS V13.01,2013-09-08 18:01:00,
2013-09-08 14:06:00,88.3,63.0,29.93,WNW,293,4.5,5.0,43,0.00,,SCT045,0.00,VWS V13.01,2013-09-08 18:06:00,
2013-09-08 14:11:00,88.5,63.2,29.93,West,280,0.0,2.8,43,0.00,,SCT045,0.00,VWS V13.01,2013-09-08 18:11:00,
2013-09-08 14:16:00,88.2,62.9,29.93,North,3,3.4,5.0,43,0.00,,BKN050,0.00,VWS V13.01,2013-09-08 18:16:00,
2013-09-08 14:21:00,87.4,62.2,29.93,West,281,6.2,7.3,43,0.00,,BKN050,0.00,VWS V13.01,2013-09-08 18:21:00,
2013-09-08 14:26:00,87.8,62.5,29.93,West,261,5.0,5.0,43,0.00,,BKN050,0.00,VWS V13.01,2013-09-08 18:26:00,
2013-09-08 14:31:00,88.5,63.2,29.93,WSW,248,4.5,5.0,43,0.00,,BKN050,0.00,VWS V13.01,2013-09-08 18:31:00,
2013-09-08 14:36:00,89.2,63.8,29.93,WNW,283,0.0,3.9,43,0.00,,BKN050,0.00,VWS V13.01,2013-09-08 18:36:00,
2013-09-08 14:41:00,88.7,63.3,29.93,WSW,258,2.8,5.0,43,0.00,,BKN050,0.00,VWS V13.01,2013-09-08 18:41:00,
2013-09-08 14:46:00,88.9,63.5,29.93,West,265,3.4,7.8,43,0.00,,BKN050,0.00,VWS V13.01,2013-09-08 18:46:00,
2013-09-08 14:51:00,89.1,61.6,29.93,West,278,5.0,7.3,40,0.00,,BKN050,0.00,VWS V13.01,2013-09-08 18:51:00,
2013-09-08 14:56:00,89.4,61.9,29.93,WNW,282,6.2,6.2,40,0.00,,OVC075,0.00,VWS V13.01,2013-09-08 18:56:00,
2013-09-08 15:01:00,89.8,62.3,29.93,WNW,295,5.6,5.6,40,0.00,,OVC075,0.00,VWS V13.01,2013-09-08 19:01:00,
2013-09-08 15:06:00,89.8,62.3,29.93,North,11,0.0,4.5,40,0.00,,OVC075,0.00,VWS V13.01,2013-09-08 19:06:00,
2013-09-08 15:11:00,89.1,61.6,29.93,West,276,3.9,6.7,40,0.00,,OVC075,0.00,VWS V13.01,2013-09-08 19:11:00,
2013-09-08 15:16:00,88.9,61.5,29.93,SE,131,2.8,3.4,40,0.00,,OVC050,0.00,VWS V13.01,2013-09-08 19:16:00,
2013-09-08 15:21:00,88.5,61.1,29.93,North,10,7.3,7.3,40,0.00,,OVC050,0.00,VWS V13.01,2013-09-08 19:21:00,
2013-09-08 15:26:00,88.3,61.0,29.93,WNW,285,9.5,9.5,40,0.00,,OVC050,0.00,VWS V13.01,2013-09-08 19:26:00,
2013-09-08 15:31:00,88.5,61.1,29.93,NW,316,0.0,2.8,40,0.00,,OVC050,0.00,VWS V13.01,2013-09-08 19:31:00,
2013-09-08 15:36:00,88.2,60.8,29.93,North,4,4.5,5.0,40,0.00,,BKN100,0.00,VWS V13.01,2013-09-08 19:36:00,
2013-09-08 15:41:00,87.6,61.0,29.91,West,262,3.4,7.8,41,0.00,,BKN100,0.00,VWS V13.01,2013-09-08 19:41:00,
2013-09-08 15:46:00,87.4,60.9,29.91,North,4,5.0,6.7,41,0.00,,BKN100,0.00,VWS V13.01,2013-09-08 19:46:00,
2013-09-08 15:51:00,87.1,60.5,29.91,NNE,12,5.0,8.9,41,0.00,,BKN100,0.00,VWS V13.01,2013-09-08 19:51:00,
2013-09-08 15:56:00,87.1,60.5,29.91,NNW,327,4.5,7.8,41,0.00,,SCT055,0.00,VWS V13.01,2013-09-08 19:56:00,
2013-09-08 16:01:00,86.9,60.4,29.91,North,5,3.4,7.3,41,0.00,,SCT055,0.00,VWS V13.01,2013-09-08 20:01:00,
2013-09-08 16:06:00,87.1,61.9,29.91,WNW,297,5.0,6.2,43,0.00,,SCT055,0.00,VWS V13.01,2013-09-08 20:06:00,
2013-09-08 16:11:00,87.6,61.0,29.91,North,10,3.9,6.7,41,0.00,,SCT055,0.00,VWS V13.01,2013-09-08 20:11:00,
2013-09-08 16:16:00,87.6,61.0,29.91,North,357,3.9,6.7,41,0.00,,SCT060,0.00,VWS V13.01,2013-09-08 20:16:00,
2013-09-08 16:21:00,87.4,60.9,29.91,West,274,6.7,7.8,41,0.00,,SCT060,0.00,VWS V13.01,2013-09-08 20:21:00,
2013-09-08 16:26:00,87.6,61.0,29.91,West,273,4.5,6.7,41,0.00,,SCT060,0.00,VWS V13.01,2013-09-08 20:26:00,
2013-09-08 16:31:00,88.0,60.7,29.91,WNW,283,4.5,6.7,40,0.00,,SCT060,0.00,VWS V13.01,2013-09-08 20:31:00,
2013-09-08 16:36:00,88.0,60.7,29.91,WSW,258,5.0,7.3,40,0.00,,CLR,0.00,VWS V13.01,2013-09-08 20:36:00,
2013-09-08 16:41:00,88.0,60.7,29.91,WSW,246,5.0,6.2,40,0.00,,CLR,0.00,VWS V13.01,2013-09-08 20:41:00,
2013-09-08 16:46:00,88.2,60.8,29.91,WSW,257,3.9,5.0,40,0.00,,CLR,0.00,VWS V13.01,2013-09-08 20:46:00,
2013-09-08 16:51:00,87.8,60.5,29.91,North,357,3.9,5.0,40,0.00,,CLR,0.00,VWS V13.01,2013-09-08 20:51:00,
2013-09-08 16:56:00,86.9,60.4,29.91,North,353,6.7,10.9,41,0.00,,SCT060,0.00,VWS V13.01,2013-09-08 20:56:00,
2013-09-08 17:01:00,86.4,59.9,29.91,North,0,9.5,10.1,41,0.00,,SCT060,0.00,VWS V13.01,2013-09-08 21:01:00,
2013-09-08 17:06:00,86.0,59.6,29.91,NNE,15,5.0,10.3,41,0.00,,SCT060,0.00,VWS V13.01,2013-09-08 21:06:00,
2013-09-08 17:11:00,85.8,59.4,29.91,North,0,7.8,9.5,41,0.00,,SCT060,0.00,VWS V13.01,2013-09-08 21:11:00,
2013-09-08 17:16:00,85.6,59.3,29.91,NNW,343,4.5,7.3,41,0.00,,CLR,0.00,VWS V13.01,2013-09-08 21:16:00,
2013-09-08 17:21:00,85.6,59.3,29.91,North,8,6.2,6.7,41,0.00,,CLR,0.00,VWS V13.01,2013-09-08 21:21:00,
2013-09-08 17:26:00,85.5,59.1,29.93,North,0,5.0,8.9,41,0.00,,CLR,0.00,VWS V13.01,2013-09-08 21:26:00,
2013-09-08 17:31:00,85.3,58.9,29.93,NNW,337,6.2,7.8,41,0.00,,CLR,0.00,VWS V13.01,2013-09-08 21:31:00,
2013-09-08 17:36:00,85.3,58.9,29.93,North,7,3.4,6.7,41,0.00,,CLR,0.00,VWS V13.01,2013-09-08 21:36:00,
2013-09-08 17:41:00,85.1,60.1,29.93,North,353,7.8,7.8,43,0.00,,CLR,0.00,VWS V13.01,2013-09-08 21:41:00,
2013-09-08 17:46:00,84.6,58.3,29.93,NNE,22,7.8,10.3,41,0.00,,CLR,0.00,VWS V13.01,2013-09-08 21:46:00,
2013-09-08 17:51:00,84.2,59.3,29.93,North,0,3.9,10.1,43,0.00,,CLR,0.00,VWS V13.01,2013-09-08 21:51:00,
2013-09-08 17:56:00,84.0,59.8,29.93,North,4,7.3,7.8,44,0.00,,SCT060,0.00,VWS V13.01,2013-09-08 21:56:00,
2013-09-08 18:01:00,83.8,59.6,29.93,North,0,7.3,9.5,44,0.00,,SCT060,0.00,VWS V13.01,2013-09-08 22:01:00,
2013-09-08 18:06:00,83.7,59.5,29.93,North,4,6.7,9.5,44,0.00,,SCT060,0.00,VWS V13.01,2013-09-08 22:06:00,
2013-09-08 18:11:00,83.5,59.3,29.91,NNE,21,6.2,7.3,44,0.00,,SCT060,0.00,VWS V13.01,2013-09-08 22:11:00,
2013-09-08 18:16:00,83.3,59.1,29.91,North,0,7.3,7.3,44,0.00,,CLR,0.00,VWS V13.01,2013-09-08 22:16:00,
2013-09-08 18:21:00,83.1,59.0,29.91,North,353,7.3,7.3,44,0.00,,CLR,0.00,VWS V13.01,2013-09-08 22:21:00,
2013-09-08 18:26:00,82.9,58.8,29.91,North,8,3.9,6.7,44,0.00,,CLR,0.00,VWS V13.01,2013-09-08 22:26:00,
2013-09-08 18:31:00,82.6,58.5,29.91,North,8,3.9,5.0,44,0.00,,CLR,0.00,VWS V13.01,2013-09-08 22:31:00,
2013-09-08 18:36:00,82.2,58.8,29.91,NNE,17,5.0,5.0,45,0.00,,CLR,0.00,VWS V13.01,2013-09-08 22:36:00,
2013-09-08 18:41:00,82.0,58.6,29.93,North,0,5.6,5.6,45,0.00,,CLR,0.00,VWS V13.01,2013-09-08 22:41:00,
2013-09-08 18:46:00,81.7,58.3,29.93,North,357,5.0,5.0,45,0.00,,CLR,0.00,VWS V13.01,2013-09-08 22:46:00,
2013-09-08 18:51:00,81.3,58.0,29.93,North,10,4.5,4.5,45,0.00,,CLR,0.00,VWS V13.01,2013-09-08 22:51:00,
2013-09-08 18:56:00,81.0,57.6,29.93,NNE,31,7.8,7.8,45,0.00,,SCT070,0.00,VWS V13.01,2013-09-08 22:56:00,
2013-09-08 19:01:00,80.8,57.5,29.93,North,357,3.4,5.0,45,0.00,,SCT070,0.00,VWS V13.01,2013-09-08 23:01:00,
2013-09-08 19:06:00,80.2,57.6,29.93,North,353,3.9,4.5,46,0.00,,SCT070,0.00,VWS V13.01,2013-09-08 23:06:00,
2013-09-08 19:11:00,79.3,56.8,29.93,North,357,3.4,4.5,46,0.00,,SCT070,0.00,VWS V13.01,2013-09-08 23:11:00,
2013-09-08 19:16:00,78.8,56.3,29.93,NNE,25,3.9,4.5,46,0.00,,SCT070,0.00,VWS V13.01,2013-09-08 23:16:00,
2013-09-08 19:21:00,78.3,56.4,29.93,North,357,0.0,2.8,47,0.00,,SCT070,0.00,VWS V13.01,2013-09-08 23:21:00,
2013-09-08 19:26:00,77.9,56.1,29.93,NNE,24,3.9,3.9,47,0.00,,SCT070,0.00,VWS V13.01,2013-09-08 23:26:00,
2013-09-08 19:31:00,77.9,56.1,29.93,NE,55,3.4,5.0,47,0.00,,SCT070,0.00,VWS V13.01,2013-09-08 23:31:00,
2013-09-08 19:36:00,78.4,56.6,29.93,ENE,68,5.0,6.2,47,0.00,,SCT060,0.00,VWS V13.01,2013-09-08 23:36:00,
2013-09-08 19:41:00,78.8,56.9,29.96,ENE,73,5.0,7.8,47,0.00,,SCT060,0.00,VWS V13.01,2013-09-08 23:41:00,
2013-09-08 19:46:00,79.0,57.0,29.96,NE,40,4.5,6.2,47,0.00,,SCT060,0.00,VWS V13.01,2013-09-08 23:46:00,
2013-09-08 19:51:00,79.0,57.0,29.96,NE,47,3.4,5.0,47,0.00,,SCT060,0.00,VWS V13.01,2013-09-08 23:51:00,
2013-09-08 19:56:00,78.8,56.9,29.96,ENE,58,3.4,5.0,47,0.00,,BKN080,0.00,VWS V13.01,2013-09-08 23:56:00,
2013-09-08 20:01:00,78.8,56.9,29.96,ENE,68,4.5,7.3,47,0.00,,BKN080,0.00,VWS V13.01,2013-09-09 00:01:00,
2013-09-08 20:06:00,78.4,57.1,29.96,North,357,2.8,3.9,48,0.00,,BKN080,0.00,VWS V13.01,2013-09-09 00:06:00,
2013-09-08 20:11:00,77.9,56.7,29.96,North,357,0.0,0.0,48,0.00,,BKN080,0.00,VWS V13.01,2013-09-09 00:11:00,
2013-09-08 20:16:00,77.4,56.7,29.96,NE,55,3.4,5.0,49,0.00,,BKN080,0.00,VWS V13.01,2013-09-09 00:16:00,
2013-09-08 20:21:00,77.2,57.1,29.96,North,357,3.4,4.5,50,0.00,,BKN080,0.00,VWS V13.01,2013-09-09 00:21:00,
2013-09-08 20:26:00,77.2,57.7,29.99,NNE,21,3.9,4.5,51,0.00,,BKN080,0.00,VWS V13.01,2013-09-09 00:26:00,
2013-09-08 20:31:00,77.4,57.8,29.99,NE,45,3.9,6.2,51,0.00,,BKN080,0.00,VWS V13.01,2013-09-09 00:31:00,
2013-09-08 20:36:00,77.7,57.6,29.99,NNE,29,3.9,6.7,50,0.00,,BKN080,0.00,VWS V13.01,2013-09-09 00:36:00,
2013-09-08 20:41:00,77.9,57.2,29.99,ENE,67,4.5,10.1,49,0.00,,BKN080,0.00,VWS V13.01,2013-09-09 00:41:00,
2013-09-08 20:46:00,77.9,57.2,29.99,NE,45,3.9,10.9,49,0.00,,BKN080,0.00,VWS V13.01,2013-09-09 00:46:00,
2013-09-08 20:51:00,77.9,57.2,29.99,ENE,71,4.5,8.9,49,0.00,,BKN080,0.00,VWS V13.01,2013-09-09 00:51:00,
2013-09-08 20:56:00,77.7,57.6,29.99,ENE,58,5.6,7.8,50,0.00,,BKN080,0.00,VWS V13.01,2013-09-09 00:56:00,
2013-09-08 21:01:00,77.5,58.0,29.99,North,2,4.5,7.8,51,0.00,,BKN080,0.00,VWS V13.01,2013-09-09 01:01:00,
2013-09-08 21:06:00,77.2,57.7,29.99,ESE,103,3.9,7.3,51,0.00,,BKN080,0.00,VWS V13.01,2013-09-09 01:06:00,
2013-09-08 21:11:00,76.8,57.9,29.99,North,3,7.3,7.3,52,0.00,,BKN080,0.00,VWS V13.01,2013-09-09 01:11:00,
2013-09-08 21:16:00,76.5,58.1,29.99,NE,41,3.4,5.0,53,0.00,,BKN090,0.00,VWS V13.01,2013-09-09 01:16:00,
2013-09-08 21:21:00,76.1,58.3,29.99,NNE,27,2.8,7.3,54,0.00,,BKN090,0.00,VWS V13.01,2013-09-09 01:21:00,
2013-09-08 21:26:00,75.9,58.6,29.99,NNE,25,2.8,4.5,55,0.00,,BKN090,0.00,VWS V13.01,2013-09-09 01:26:00,
2013-09-08 21:31:00,75.6,58.3,29.99,North,11,2.8,4.5,55,0.00,,BKN090,0.00,VWS V13.01,2013-09-09 01:31:00,
2013-09-08 21:36:00,75.2,57.9,29.99,NE,38,3.4,3.4,55,0.00,,SCT060,0.00,VWS V13.01,2013-09-09 01:36:00,
2013-09-08 21:41:00,74.8,58.1,30.02,NE,38,0.0,0.0,56,0.00,,SCT060,0.00,VWS V13.01,2013-09-09 01:41:00,
2013-09-08 21:46:00,74.7,57.9,30.02,NNE,26,2.8,3.4,56,0.00,,SCT060,0.00,VWS V13.01,2013-09-09 01:46:00,
2013-09-08 21:51:00,74.7,57.9,30.02,NNE,28,3.4,4.5,56,0.00,,SCT060,0.00,VWS V13.01,2013-09-09 01:51:00,
2013-09-08 21:56:00,74.3,57.6,30.02,North,353,0.0,0.0,56,0.00,,CLR,0.00,VWS V13.01,2013-09-09 01:56:00,
2013-09-08 22:01:00,73.6,56.9,30.02,North,353,0.0,0.0,56,0.00,,CLR,0.00,VWS V13.01,2013-09-09 02:01:00,
2013-09-08 22:06:00,72.9,56.8,30.02,North,0,0.0,0.0,57,0.00,,CLR,0.00,VWS V13.01,2013-09-09 02:06:00,
2013-09-08 22:11:00,72.1,56.1,30.02,North,0,0.0,0.0,57,0.00,,CLR,0.00,VWS V13.01,2013-09-09 02:11:00,
2013-09-08 22:16:00,71.8,55.8,30.02,North,353,0.0,0.0,57,0.00,,BKN050,0.00,VWS V13.01,2013-09-09 02:16:00,
2013-09-08 22:21:00,71.4,55.9,30.02,North,0,0.0,0.0,58,0.00,,BKN050,0.00,VWS V13.01,2013-09-09 02:21:00,
2013-09-08 22:26:00,71.2,55.7,30.02,North,0,0.0,0.0,58,0.00,,BKN050,0.00,VWS V13.01,2013-09-09 02:26:00,
2013-09-08 22:31:00,71.2,56.2,30.02,North,0,0.0,0.0,59,0.00,,BKN050,0.00,VWS V13.01,2013-09-09 02:31:00,
2013-09-08 22:36:00,71.1,56.0,30.02,North,0,0.0,0.0,59,0.00,,OVC044,0.00,VWS V13.01,2013-09-09 02:36:00,
2013-09-08 22:41:00,70.7,55.7,30.02,North,0,0.0,0.0,59,0.00,,OVC044,0.00,VWS V13.01,2013-09-09 02:41:00,
2013-09-08 22:46:00,70.5,56.0,30.02,NNW,337,0.0,0.0,60,0.00,,OVC044,0.00,VWS V13.01,2013-09-09 02:46:00,
2013-09-08 22:51:00,70.2,56.1,30.02,NW,320,0.0,0.0,61,0.00,,OVC044,0.00,VWS V13.01,2013-09-09 02:51:00,
2013-09-08 22:56:00,69.8,55.8,30.05,NW,320,0.0,0.0,61,0.00,,BKN047,0.00,VWS V13.01,2013-09-09 02:56:00,
2013-09-08 23:01:00,69.6,56.0,30.05,NW,320,0.0,0.0,62,0.00,,BKN047,0.00,VWS V13.01,2013-09-09 03:01:00,
2013-09-08 23:06:00,69.4,56.3,30.05,NW,320,0.0,0.0,63,0.00,,BKN047,0.00,VWS V13.01,2013-09-09 03:06:00,
2013-09-08 23:11:00,69.3,56.1,30.05,NW,320,0.0,0.0,63,0.00,,BKN047,0.00,VWS V13.01,2013-09-09 03:11:00,
2013-09-08 23:16:00,69.1,56.4,30.05,NW,320,0.0,0.0,64,0.00,,BKN049,0.00,VWS V13.01,2013-09-09 03:16:00,
2013-09-08 23:21:00,68.9,56.2,30.05,NW,320,0.0,0.0,64,0.00,,BKN049,0.00,VWS V13.01,2013-09-09 03:21:00,
2013-09-08 23:26:00,68.7,56.9,30.05,NW,320,0.0,0.0,66,0.00,,BKN049,0.00,VWS V13.01,2013-09-09 03:26:00,
2013-09-08 23:31:00,68.9,57.5,30.05,NW,320,0.0,0.0,67,0.00,,BKN049,0.00,VWS V13.01,2013-09-09 03:31:00,
2013-09-08 23:36:00,68.9,57.9,30.05,NNW,346,0.0,0.0,68,0.00,,OVC049,0.00,VWS V13.01,2013-09-09 03:36:00,
2013-09-08 23:41:00,69.3,58.3,30.05,North,2,2.8,3.9,68,0.00,,OVC049,0.00,VWS V13.01,2013-09-09 03:41:00,
2013-09-08 23:46:00,69.4,58.8,30.05,North,2,0.0,0.0,69,0.00,,OVC049,0.00,VWS V13.01,2013-09-09 03:46:00,
2013-09-08 23:51:00,69.8,59.2,30.05,North,4,0.0,0.0,69,0.00,,OVC049,0.00,VWS V13.01,2013-09-09 03:51:00,
2013-09-08 23:56:00,70.0,59.3,30.05,North,357,0.0,0.0,69,0.00,,OVC055,0.00,VWS V13.01,2013-09-09 03:56:00,